Regional Weather Roundup
Issued by NWS Green Bay, WI

Home | Current Version | Previous Version | Text Only | Print | Product List | Glossary On
Versions: 1 2 3 4 5 6 7 8 9 10 11 12 13 14 15 16 17 18 19 20 21 22 23 24 25 26 27 28 29 30 31 32 33 34 35 36 37 38 39 40 41 42 43 44 45 46 47 48 49 50
000
ASUS43 KGRB 311210
RWRGRB

NORTH-CENTRAL AND NORTHEAST WISCONSIN REGIONAL WEATHER ROUNDUP
NATIONAL WEATHER SERVICE GREEN BAY WI
700 AM CDT FRI OCT 31 2014

WIZ005-009-010>012-018-019-311300-
NORTH CENTRAL WISCONSIN

CITY           SKY/WX    TMP DP  RH WIND       PRES   REMARKS
IRONWOOD       CLOUDY    28  23  80 N13G20    30.37S
MANITOWISH WTR MOCLDY    26  23  90 N10G22    30.34R
ARBOR VITAE    FLURRIES  29  26  86 N14G22    30.32R
EAGLE RIVER    LGT SNOW  26  24  91 N15G21    30.29R VSB 3/4
LAND O LAKES   LGT SNOW  27  24  87 N13G23    30.32R
RHINELANDER    MOCLDY    26  21  81 N9G21     30.30R
PHILLIPS       PTCLDY    26  22  83 N8        30.34S
ANTIGO         CLOUDY    28  22  80 N17G30    30.25R
TOMAHAWK       CLOUDY    28  23  82 N6G18     30.31S
MERRILL        CLEAR     29  22  76 N16G25    30.30R
$$

WIZ013-073-311300-
NORTHEAST WISCONSIN

CITY           SKY/WX    TMP DP  RH WIND       PRES   REMARKS
IRON MOUNTAIN  MOCLDY    30  22  72 N20G30    30.24R
MARINETTE      CLOUDY    34  21  60 N18G36    30.18R
OCONTO         CLOUDY    34  24  64 N22G39    30.19R
$$

WIZ017-030-035>037-045-311300-
CENTRAL WISCONSIN

CITY           SKY/WX    TMP DP  RH WIND       PRES   REMARKS
MEDFORD        CLOUDY    28  22  76 N17G25    30.31R
WAUSAU         CLEAR     29  21  72 N17G24    30.28R
MOSINEE        PTCLDY    28  23  80 N20G30    30.28R
MARSHFIELD     MOCLDY    31  21  66 N13G28    30.30R
WISC RAPIDS    PTCLDY    31  22  69 N18G26    30.29R
STEVENS POINT  MOCLDY    28  21  74 N15G23    30.28R
WAUPACA        PTCLDY    33  26  73 N20G28    30.23R
SHAWANO        PTCLDY    35  23  62 N17G32    30.22R
CLINTONVILLE   PTCLDY    32  23  69 N20       30.22R
$$

WIZ038-039-048-051-311300-
FOX VALLEY

CITY           SKY/WX    TMP DP  RH WIND       PRES   REMARKS
NWS GREEN BAY  CLOUDY    35  24  64 N23G40    30.18R
APPLETON       CLOUDY    34  21  60 N21G28    30.18R
OSHKOSH        CLOUDY    35  24  64 N22G33    30.18R
FOND DU LAC    CLOUDY    35  24  64 N22G39    30.17R
$$

WIZ022-050-052-311300-
EAST CENTRAL WISCONSIN

CITY           SKY/WX    TMP DP  RH WIND       PRES   REMARKS
STURGEON BAY   CLOUDY    36  27  69 N31G47    30.13R
MANITOWOC      LGT RAIN  34  31  88 N24G36    30.11R
SHEBOYGAN      FLURRIES  34  29  82 N24G31    30.12R
$$

LMZ563-521-522-541>543-311300-
LAKESHORE

STATION/POSITION TIME  TEMP    WIND        PRES    VSBY  WAVE
                       AIR SEA DIR/SP/G                  HT/PER
                 (UTC) (F)     (DEG/KT/KT) (MB)    (MI)  (FT/S)
SHEBOYGAN LKSHOR 1200   35 49  330/ 29/ 33 1020.2R
KEWAUNEE LKSHORE 1200   34     340/ 15/ 25 1018.8R
TWO RIVERS CG    1200   34 48              1019.2          2
NORTHPORT PIER   1200   37     360/ 36     1021.3R
N MID LAKE BUOY  1200   38 50   10/ 37/ 45 1018.3R        10/ 7
STURGEON BAY CG  1200   33 48  340/  9     1020.9   3 1/2  3
CHAMBERS ISLAND  1200   36     330/ 35/ 42 1021.0R
MENOMINEE LKSHOR 1200   36     340/ 27/ 35 1022.3R
$$



USA.gov is the U.S. government's official web portal to all federal, state and local government web resources and services.